FW7766 Weather Reports


Display with metric or nautical units.
time (UTC)temp
F
wind
direction
speed
MPH
gust
MPH
rain 1hr
in
rain 24hr
in
rain mn
in
humidity
%
barometer
mb
20260904154027 89 0 0.0 2.0 0.00 0.00 0.00 51 1017.9
20260904153023 87 0.0 0.0 0.00 0.00 0.00 52 1017.8
20260904152019 87 0.0 0.0 0.00 0.00 0.00 55 1017.8
20260904151016 86 270 0.0 1.0 0.00 0.00 0.00 55 1017.9
20260904150113 85 0.0 0.0 0.00 0.00 0.00 55 1017.9
20260904145109 84 270 0.0 1.0 0.00 0.00 0.00 56 1018.1
20260904144106 84 326 1.0 2.0 0.00 0.00 0.00 56 1018.1
20260904143102 83 0 0.0 1.0 0.00 0.00 0.00 56 1018.1
20260904142059 82 0.0 1.0 0.00 0.00 0.00 58 1018.0
20260904141055 81 0.0 0.0 0.00 0.00 0.00 60 1018.0
20260904140112 80 0 1.0 2.0 0.00 0.00 0.00 60 1018.0
20260904135049 79 0.0 0.0 0.00 0.00 0.00 62 1018.0
20260904134045 78 326 1.0 2.0 0.00 0.00 0.00 63 1017.9
20260904133042 77 0.0 0.0 0.00 0.00 0.00 68 1017.9
20260904132039 76 0.0 0.0 0.00 0.00 0.00 75 1018.0
20260904131035 76 0.0 0.0 0.00 0.00 0.00 82 1018.1
20260904130052 75 0.0 0.0 0.00 0.00 0.00 86 1018.3
20260904125028 74 0.0 0.0 0.00 0.00 0.00 87 1018.2
20260904124025 74 0.0 0.0 0.00 0.00 0.00 87 1018.2
20260904123019 74 0.0 0.0 0.00 0.00 0.00 88 1018.2
20260904122016 73 0.0 0.0 0.00 0.00 0.00 86 1018.0
20260904121133 72 0.0 0.0 0.00 0.00 0.00 88 1018.1
20260904120109 72 0.0 0.0 0.00 0.00 0.00 88 1018.1
20260904115106 72 0.0 0.0 0.00 0.00 0.00 86 1018.0
20260904114143 72 0.0 0.0 0.00 0.00 0.00 85 1017.9
20260904113119 72 0.0 0.0 0.00 0.00 0.00 83 1017.8
20260904112055 72 0.0 0.0 0.00 0.00 0.00 82 1017.6
20260904111052 72 0.0 0.0 0.00 0.00 0.00 84 1017.6
20260904110048 72 0.0 0.0 0.00 0.00 0.00 85 1017.5
20260904105045 73 0.0 0.0 0.00 0.00 0.00 81 1017.3
20260904104042 73 0.0 0.0 0.00 0.00 0.00 80 1017.3
20260904103038 73 0.0 0.0 0.00 0.00 0.00 79 1017.3
20260904102035 73 0.0 0.0 0.00 0.00 0.00 78 1017.4
20260904101032 73 0.0 0.0 0.00 0.00 0.00 79 1017.4
20260904100028 73 0.0 0.0 0.00 0.00 0.00 78 1017.4
20260904095025 73 0.0 0.0 0.00 0.00 0.00 77 1017.4
20260904094021 73 0.0 0.0 0.00 0.00 0.00 78 1017.3
20260904093018 73 0.0 0.0 0.00 0.00 0.00 76 1017.3
20260904092115 73 0.0 0.0 0.00 0.00 0.00 70 1017.1
20260904091151 74 0.0 0.0 0.00 0.00 0.00 77 1016.9
20260904090108 74 0.0 0.0 0.00 0.00 0.00 80 1016.8
20260904085105 74 0.0 0.0 0.00 0.00 0.00 82 1016.7
20260904084101 74 0.0 0.0 0.00 0.00 0.00 83 1016.6
20260904083058 74 0.0 0.0 0.00 0.00 0.00 84 1016.5
20260904082054 74 0.0 0.0 0.00 0.00 0.00 81 1016.3
20260904081111 74 0.0 0.0 0.00 0.00 0.00 76 1016.3
20260904080047 74 0.0 0.0 0.00 0.00 0.00 76 1016.5
20260904075104 74 0.0 0.0 0.00 0.00 0.00 75 1016.6
20260904074041 74 0.0 0.0 0.00 0.00 0.00 75 1016.6
20260904073037 74 0.0 0.0 0.00 0.00 0.00 74 1016.6
20260904072034 74 0.0 0.0 0.00 0.00 0.00 73 1016.8
20260904071030 74 0.0 0.0 0.00 0.00 0.00 72 1016.7
20260904070027 74 0.0 0.0 0.00 0.00 0.00 71 1016.9
20260904065104 74 0.0 0.0 0.00 0.00 0.00 71 1017.1
20260904064020 74 0.0 0.0 0.00 0.00 0.00 70 1017.2
20260904063016 74 0.0 0.0 0.00 0.00 0.00 69 1017.3
20260904062113 74 0.0 0.0 0.00 0.00 0.00 69 1017.5
20260904061110 75 0.0 0.0 0.00 0.00 0.00 69 1017.5
20260904060107 75 0.0 0.0 0.00 0.00 0.00 69 1017.6
20260904055103 75 0.0 0.0 0.00 0.00 0.00 68 1017.7
20260904054100 75 0.0 0.0 0.00 0.00 0.00 68 1017.8
20260904053057 75 0.0 0.0 0.00 0.00 0.00 67 1017.9
20260904052053 75 0.0 0.0 0.00 0.00 0.00 68 1018.0
20260904051050 75 0.0 0.0 0.00 0.00 0.00 67 1018.1
20260904050046 75 0.0 0.0 0.00 0.00 0.00 67 1018.0
20260904045043 76 0.0 0.0 0.00 0.00 0.00 66 1018.1
20260904044040 76 0.0 0.0 0.00 0.00 0.00 66 1018.1
20260904043036 76 0.0 0.0 0.00 0.00 0.00 67 1018.0
20260904042053 76 0.0 0.0 0.00 0.00 0.00 67 1017.9
20260904041029 76 0.0 0.0 0.00 0.00 0.00 66 1017.9
20260904040026 76 0.0 0.0 0.00 0.00 0.00 66 1017.8
20260904035043 77 0.0 0.0 0.00 0.00 0.00 66 1017.9
20260904034018 77 0.0 0.0 0.00 0.00 0.00 65 1017.8
20260904033114 77 0.0 0.0 0.00 0.00 0.00 65 1017.9
20260904032111 77 0.0 0.0 0.00 0.00 0.00 65 1017.9
20260904031107 77 0.0 0.0 0.00 0.00 0.00 65 1018.0
20260904030104 77 0.0 0.0 0.00 0.00 0.00 64 1018.0
20260904025100 78 0.0 0.0 0.00 0.00 0.00 64 1017.9
20260904024057 78 0.0 0.0 0.00 0.00 0.00 64 1017.9
20260904023053 79 0.0 0.0 0.00 0.00 0.00 63 1017.9
20260904022050 79 0.0 0.0 0.00 0.00 0.00 63 1017.9
20260904021046 79 0.0 0.0 0.00 0.00 0.00 62 1018.0
20260904020043 79 0.0 0.0 0.00 0.00 0.00 62 1018.1
20260904015039 80 0.0 0.0 0.00 0.00 0.00 61 1018.0
20260904014036 80 0.0 0.0 0.00 0.00 0.00 61 1017.7
20260904013033 80 0.0 0.0 0.00 0.00 0.00 60 1017.7
20260904012029 81 0.0 0.0 0.00 0.00 0.00 60 1017.6
20260904011026 82 0.0 0.0 0.00 0.00 0.00 57 1017.5
20260904010043 82 0.0 0.0 0.00 0.00 0.00 56 1017.3
20260904005019 83 0.0 0.0 0.00 0.00 0.00 55 1017.2
20260904004016 83 0.0 0.0 0.00 0.00 0.00 55 1017.1
20260904003112 84 0.0 0.0 0.00 0.00 0.00 54 1017.0
20260904002109 85 0.0 0.0 0.00 0.00 0.00 55 1016.8
20260904001106 85 0.0 0.0 0.00 0.00 0.00 50 1016.7
20260903235119 86 0.0 0.0 0.00 0.00 0.00 50 1016.5
20260903234055 87 0.0 0.0 0.00 0.00 0.00 49 1016.6
20260903233112 89 0.0 0.0 0.00 0.00 0.00 46 1016.5
20260903232049 89 0.0 0.0 0.00 0.00 0.00 46 1016.4
20260903231045 90 0.0 0.0 0.00 0.00 0.00 46 1016.4
20260903230042 90 0.0 0.0 0.00 0.00 0.00 46 1016.4
20260903225038 91 0.0 0.0 0.00 0.00 0.00 36 1016.5
20260903224034 91 0.0 0.0 0.00 0.00 0.00 38 1016.3
20260903223031 92 0.0 0.0 0.00 0.00 0.00 39 1016.2
20260903222028 92 0.0 0.0 0.00 0.00 0.00 38 1016.4
20260903221024 93 0.0 0.0 0.00 0.00 0.00 38 1016.3
20260903220021 93 0.0 0.0 0.00 0.00 0.00 39 1016.3
20260903215017 93 0.0 0.0 0.00 0.00 0.00 39 1016.5
20260903214114 94 0.0 0.0 0.00 0.00 0.00 39 1016.5
20260903213111 94 270 0.0 1.0 0.00 0.00 0.00 40 1016.5
20260903212107 94 180 0.0 1.0 0.00 0.00 0.00 42 1016.6
20260903211104 94 270 1.0 2.0 0.00 0.00 0.00 42 1016.7
20260903210100 94 180 1.0 3.0 0.00 0.00 0.00 42 1016.7
20260903205057 94 270 0.0 1.0 0.00 0.00 0.00 40 1016.7
20260903204053 95 0.0 0.0 0.00 0.00 0.00 43 1016.9
20260903203129 94 270 0.0 1.0 0.00 0.00 0.00 40 1016.8
20260903202045 94 270 1.0 3.0 0.00 0.00 0.00 40 1017.0
20260903201101 94 270 0.0 2.0 0.00 0.00 0.00 39 1017.0
20260903200038 94 90 0.0 1.0 0.00 0.00 0.00 39 1017.2
20260903195054 94 0.0 0.0 0.00 0.00 0.00 39 1017.2
20260903194031 94 166 1.0 3.0 0.00 0.00 0.00 40 1017.4
20260903193027 95 323 2.0 3.0 0.00 0.00 0.00 42 1017.5
20260903192024 95 297 1.0 3.0 0.00 0.00 0.00 42 1017.6
20260903191021 95 203 1.0 3.0 0.00 0.00 0.00 40 1017.7
20260903190017 94 333 1.0 4.0 0.00 0.00 0.00 40 1017.7
20260903185114 94 320 1.0 3.0 0.00 0.00 0.00 40 1017.8
20260903184110 94 63 1.0 3.0 0.00 0.00 0.00 40 1017.8
20260903183107 94 270 1.0 3.0 0.00 0.00 0.00 40 1017.9
20260903182104 93 270 2.0 3.0 0.00 0.00 0.00 40 1018.0
20260903181100 93 270 2.0 3.0 0.00 0.00 0.00 39 1018.2
20260903180057 94 270 2.0 3.0 0.00 0.00 0.00 40 1018.2
20260903175054 95 270 1.0 3.0 0.00 0.00 0.00 39 1018.4
20260903174050 94 270 1.0 3.0 0.00 0.00 0.00 40 1018.4
20260903173047 94 293 2.0 3.0 0.00 0.00 0.00 40 1018.6
20260903172044 94 270 1.0 2.0 0.00 0.00 0.00 41 1018.6
20260903171100 94 90 0.0 1.0 0.00 0.00 0.00 40 1018.9
20260903170037 95 90 1.0 2.0 0.00 0.00 0.00 40 1018.9
20260903165033 94 0.0 0.0 0.00 0.00 0.00 38 1019.0
20260903164030 93 270 1.0 2.0 0.00 0.00 0.00 38 1019.1
20260903163027 93 297 1.0 2.0 0.00 0.00 0.00 38 1019.1
20260903162023 94 0.0 0.0 0.00 0.00 0.00 39 1019.3
20260903161020 92 270 1.0 5.0 0.00 0.00 0.00 37 1019.3
20260903160016 91 353 1.0 2.0 0.00 0.00 0.00 39 1019.4
20260903155136 89 320 1.0 3.0 0.00 0.00 0.00 46 1019.4